^^

..:: Storico WU ::..




Lo storico viene creato da WUnderground con i dati che la stazione Meteomincio invia al loro server. L' aggiornamento viene fatto ogni 5 minuti circa, tuttavia possono esserci intervalli pił ampi a causa di errori, interruzioni di servizio o problemi nell' invio tramite FTP.


Storico stazione MeteoMincio
Giorno Sommario per Gennaio 24, 2022 Unità:  Inglese    Metrico   Entrambi
Giorno Settimana Mese Anno
  Max: Min: Media:
Temperatura: 37.4 °F 28.4 °F 32.5 °F
Dew Point: 37.4 °F 28.4 °F 32.4 °F
Umidità: 100% 98% 99%
Velocità vento: 6.8mph 0mph 3mph
Raffica: 8.1mph - -
Direzione- - SW
Pressione: 30.6 in 30.4 in -
Precipitazioni: 0.01 in    
 
 
Tabulato Dati per Gennaio 24, 2022
Ora Temperatura Dew Point Pressione Direzione Velocità vento Raffica Umidità Intensità pioggia (oraria) Info solare Situazione
00:04 32 °F 30.2 °F 30.5 in SW 2.5 mph 3.7 mph 99% 0 in 0.00 W/m2 unknown
00:09 32 °F 30.2 °F 30.5 in SSW 1.9 mph 3.7 mph 99% 0 in 0.00 W/m2 unknown
00:14 30.2 °F 30.2 °F 30.5 in SW 1.2 mph 3.1 mph 99% 0 in 0.00 W/m2 unknown
00:19 30.2 °F 30.2 °F 30.5 in SW 1.9 mph 2.5 mph 99% 0 in 0.00 W/m2 unknown
00:24 30.2 °F 30.2 °F 30.5 in SW 1.9 mph 2.5 mph 99% 0 in 0.00 W/m2 unknown
00:29 30.2 °F 30.2 °F 30.5 in SW 1.2 mph 2.5 mph 99% 0 in 0.00 W/m2 unknown
00:34 30.2 °F 30.2 °F 30.5 in SW 1.9 mph 2.5 mph 99% 0 in 0.00 W/m2 unknown
00:39 30.2 °F 30.2 °F 30.5 in SW 1.2 mph 2.5 mph 99% 0 in 0.00 W/m2 unknown
00:44 30.2 °F 30.2 °F 30.5 in WSW 1.2 mph 2.5 mph 99% 0 in 0.00 W/m2 unknown
00:49 30.2 °F 30.2 °F 30.5 in West 0.6 mph 2.5 mph 99% 0 in 0.00 W/m2 unknown
00:54 30.2 °F 30.2 °F 30.5 in Calm   1.9 mph 99% 0 in 0.00 W/m2 unknown
00:59 30.2 °F 30.2 °F 30.5 in WNW 1.9 mph 3.1 mph 99% 0 in 0.00 W/m2 unknown
01:04 30.2 °F 30.2 °F 30.5 in West 1.9 mph 3.7 mph 99% 0 in 0.00 W/m2 unknown
01:09 30.2 °F 30.2 °F 30.5 in WSW 1.9 mph 3.7 mph 99% 0 in 0.00 W/m2 unknown
01:14 30.2 °F 30.2 °F 30.5 in SW 2.5 mph 3.7 mph 99% 0 in 0.00 W/m2 unknown
01:19 30.2 °F 30.2 °F 30.5 in SW 1.9 mph 3.7 mph 99% 0 in 0.00 W/m2 unknown
01:24 30.2 °F 30.2 °F 30.5 in SW 1.2 mph 3.1 mph 99% 0 in 0.00 W/m2 unknown
01:29 30.2 °F 30.2 °F 30.5 in West 1.9 mph 3.7 mph 99% 0 in 0.00 W/m2 unknown
01:34 30.2 °F 30.2 °F 30.5 in West 1.2 mph 3.1 mph 99% 0 in 0.00 W/m2 unknown
01:39 30.2 °F 30.2 °F 30.5 in Calm   1.9 mph 99% 0 in 0.00 W/m2 unknown
01:44 30.2 °F 30.2 °F 30.5 in WNW 2.5 mph 3.7 mph 99% 0 in 0.00 W/m2 unknown
01:49 30.2 °F 30.2 °F 30.5 in WNW 2.5 mph 3.7 mph 99% 0 in 0.00 W/m2 unknown
01:54 30.2 °F 30.2 °F 30.5 in West 3.1 mph 3.7 mph 99% 0 in 0.00 W/m2 unknown
01:59 30.2 °F 30.2 °F 30.5 in WSW 3.1 mph 3.7 mph 99% 0 in 0.00 W/m2 unknown
02:04 30.2 °F 30.2 °F 30.5 in West 3.1 mph 3.7 mph 99% 0 in 0.00 W/m2 unknown
02:09 30.2 °F 30.2 °F 30.5 in West 5 mph 6.2 mph 99% 0 in 0.00 W/m2 unknown
02:14 30.2 °F 30.2 °F 30.5 in West 3.7 mph 6.2 mph 99% 0 in 0.00 W/m2 unknown
02:19 30.2 °F 30.2 °F 30.5 in West 4.3 mph 5 mph 99% 0 in 0.00 W/m2 unknown
02:24 30.2 °F 30.2 °F 30.5 in West 4.3 mph 5 mph 99% 0 in 0.00 W/m2 unknown
02:29 30.2 °F 30.2 °F 30.5 in West 3.7 mph 5 mph 99% 0 in 0.00 W/m2 unknown
02:34 30.2 °F 30.2 °F 30.5 in West 3.7 mph 5 mph 99% 0 in 0.00 W/m2 unknown
02:39 30.2 °F 30.2 °F 30.5 in WNW 5 mph 6.2 mph 99% 0 in 0.00 W/m2 unknown
02:44 30.2 °F 28.4 °F 30.5 in West 5 mph 6.2 mph 98% 0 in 0.00 W/m2 unknown
02:49 30.2 °F 28.4 °F 30.5 in West 5 mph 6.2 mph 98% 0 in 0.00 W/m2 unknown
02:54 28.4 °F 28.4 °F 30.5 in West 5 mph 6.2 mph 98% 0 in 0.00 W/m2 unknown
02:59 28.4 °F 28.4 °F 30.5 in West 4.3 mph 6.2 mph 98% 0 in 0.00 W/m2 unknown
03:04 28.4 °F 28.4 °F 30.5 in West 4.3 mph 5 mph 98% 0 in 0.00 W/m2 unknown
03:09 28.4 °F 28.4 °F 30.5 in West 3.7 mph 5 mph 98% 0 in 0.00 W/m2 unknown
03:14 28.4 °F 28.4 °F 30.5 in West 3.7 mph 5 mph 98% 0 in 0.00 W/m2 unknown
03:19 28.4 °F 28.4 °F 30.5 in West 4.3 mph 6.2 mph 98% 0 in 0.00 W/m2 unknown
03:24 28.4 °F 28.4 °F 30.5 in WNW 5 mph 6.2 mph 98% 0 in 0.00 W/m2 unknown
03:29 28.4 °F 28.4 °F 30.5 in WNW 5.6 mph 6.8 mph 98% 0 in 0.00 W/m2 unknown
03:34 28.4 °F 28.4 °F 30.5 in West 5.6 mph 6.8 mph 98% 0 in 0.00 W/m2 unknown
03:39 28.4 °F 28.4 °F 30.5 in WSW 5 mph 6.8 mph 98% 0 in 0.00 W/m2 unknown
03:44 28.4 °F 28.4 °F 30.5 in West 3.7 mph 6.2 mph 98% 0 in 0.00 W/m2 unknown
03:49 28.4 °F 28.4 °F 30.5 in West 5.6 mph 6.2 mph 98% 0 in 0.00 W/m2 unknown
03:54 28.4 °F 28.4 °F 30.5 in West 5 mph 6.2 mph 98% 0 in 0.00 W/m2 unknown
03:59 28.4 °F 28.4 °F 30.5 in WNW 5.6 mph 6.8 mph 98% 0 in 0.00 W/m2 unknown
04:04 28.4 °F 28.4 °F 30.5 in West 6.2 mph 6.8 mph 98% 0 in 0.00 W/m2 unknown
04:09 28.4 °F 28.4 °F 30.5 in West 4.3 mph 6.8 mph 98% 0 in 0.00 W/m2 unknown
04:14 28.4 °F 28.4 °F 30.5 in West 5 mph 6.2 mph 98% 0 in 0.00 W/m2 unknown
04:19 28.4 °F 28.4 °F 30.5 in WNW 5 mph 6.2 mph 98% 0 in 0.00 W/m2 unknown
04:24 28.4 °F 28.4 °F 30.5 in WNW 5.6 mph 6.8 mph 98% 0 in 0.00 W/m2 unknown
04:29 28.4 °F 28.4 °F 30.5 in West 5.6 mph 6.8 mph 98% 0 in 0.00 W/m2 unknown
04:34 28.4 °F 28.4 °F 30.5 in West 5 mph 6.2 mph 98% 0 in 0.00 W/m2 unknown
04:39 30.2 °F 28.4 °F 30.5 in West 5 mph 6.2 mph 98% 0 in 0.00 W/m2 unknown
04:44 30.2 °F 28.4 °F 30.4 in West 6.8 mph 8.1 mph 98% 0 in 0.00 W/m2 unknown
04:49 28.4 °F 28.4 °F 30.4 in WNW 6.2 mph 8.1 mph 98% 0 in 0.00 W/m2 unknown
04:54 28.4 °F 28.4 °F 30.4 in WNW 5.6 mph 8.1 mph 98% 0 in 0.00 W/m2 unknown
04:59 28.4 °F 28.4 °F 30.4 in West 5 mph 8.1 mph 98% 0 in 0.00 W/m2 unknown
05:04 28.4 °F 28.4 °F 30.4 in West 5.6 mph 8.1 mph 98% 0 in 0.00 W/m2 unknown
05:09 28.4 °F 28.4 °F 30.4 in West 4.3 mph 8.1 mph 98% 0 in 0.00 W/m2 unknown
05:14 28.4 °F 28.4 °F 30.4 in West 3.7 mph 6.2 mph 98% 0 in 0.00 W/m2 unknown
05:19 28.4 °F 28.4 °F 30.4 in West 4.3 mph 6.2 mph 98% 0 in 0.00 W/m2 unknown
05:24 28.4 °F 28.4 °F 30.4 in West 5.6 mph 6.2 mph 98% 0 in 0.00 W/m2 unknown
05:29 28.4 °F 28.4 °F 30.4 in WNW 5.6 mph 6.8 mph 98% 0 in 0.00 W/m2 unknown
05:34 28.4 °F 28.4 °F 30.4 in WNW 6.2 mph 6.8 mph 98% 0 in 0.00 W/m2 unknown
05:39 28.4 °F 28.4 °F 30.4 in West 5 mph 6.2 mph 98% 0 in 0.00 W/m2 unknown
05:44 28.4 °F 28.4 °F 30.4 in WNW 3.7 mph 6.2 mph 98% 0 in 0.00 W/m2 unknown
05:49 28.4 °F 28.4 °F 30.4 in West 3.7 mph 5 mph 98% 0 in 0.00 W/m2 unknown
05:54 28.4 °F 28.4 °F 30.4 in WNW 3.1 mph 5 mph 98% 0 in 0.00 W/m2 unknown
05:59 28.4 °F 28.4 °F 30.4 in WSW 2.5 mph 3.7 mph 98% 0 in 0.00 W/m2 unknown
06:04 28.4 °F 28.4 °F 30.4 in WSW 2.5 mph 3.7 mph 98% 0 in 0.00 W/m2 unknown
06:09 28.4 °F 28.4 °F 30.4 in WSW 3.7 mph 3.7 mph 98% 0 in 0.00 W/m2 unknown
06:14 28.4 °F 28.4 °F 30.4 in West 2.5 mph 3.7 mph 98% 0 in 0.00 W/m2 unknown
06:19 28.4 °F 28.4 °F 30.4 in West 3.1 mph 5 mph 98% 0 in 0.00 W/m2 unknown
06:24 28.4 °F 28.4 °F 30.5 in WNW 3.1 mph 5 mph 98% 0 in 0.00 W/m2 unknown
06:29 28.4 °F 28.4 °F 30.5 in West 1.9 mph 3.7 mph 98% 0 in 0.00 W/m2 unknown
06:34 28.4 °F 28.4 °F 30.5 in West 3.1 mph 3.7 mph 98% 0 in 0.00 W/m2 unknown
06:39 28.4 °F 28.4 °F 30.5 in WSW 3.1 mph 3.7 mph 98% 0 in 0.00 W/m2 unknown
06:44 28.4 °F 28.4 °F 30.5 in SW 2.5 mph 3.7 mph 98% 0 in 0.00 W/m2 unknown
06:49 28.4 °F 28.4 °F 30.5 in WSW 2.5 mph 3.7 mph 98% 0 in 0.00 W/m2 unknown
06:54 28.4 °F 28.4 °F 30.5 in SW 3.7 mph 5 mph 98% 0 in 0.00 W/m2 unknown
06:59 28.4 °F 28.4 °F 30.5 in WSW 1.9 mph 5 mph 98% 0 in 0.00 W/m2 unknown
07:04 28.4 °F 28.4 °F 30.5 in SW 3.1 mph 5 mph 98% 0 in 0.00 W/m2 unknown
07:09 28.4 °F 28.4 °F 30.5 in SW 4.3 mph 6.2 mph 98% 0 in 0.00 W/m2 unknown
07:14 28.4 °F 28.4 °F 30.5 in SSW 5 mph 6.2 mph 98% 0 in 0.00 W/m2 unknown
07:15 28.4 °F 28.4 °F 30.5 in SSW 2.5 mph 6.2 mph 98% 0 in 0.00 W/m2 unknown
07:33 28.4 °F 28.4 °F 30.5 in SSW 3.7 mph 5.6 mph 98% 0 in 0.00 W/m2 unknown
09:14 28.4 °F 28.4 °F 30.5 in SSE 0.6 mph 1.2 mph 98% 0 in 33.00 W/m2 unknown
09:19 28.4 °F 28.4 °F 30.5 in Calm   1.2 mph 98% 0 in 40.00 W/m2 unknown
09:24 28.4 °F 28.4 °F 30.5 in SSE 0.6 mph 2.5 mph 98% 0 in 42.00 W/m2 unknown
09:29 28.4 °F 28.4 °F 30.5 in SW 2.5 mph 3.7 mph 98% 0 in 40.00 W/m2 unknown
09:34 28.4 °F 28.4 °F 30.5 in WSW 1.9 mph 3.7 mph 98% 0 in 49.00 W/m2 unknown
10:07 30.2 °F 28.4 °F 30.5 in WSW 0.6 mph 1.2 mph 98% 0 in 69.00 W/m2 unknown
10:14 30.2 °F 28.4 °F 30.5 in WSW 0.6 mph 2.5 mph 98% 0 in 60.00 W/m2 unknown
10:15 30.2 °F 28.4 °F 30.5 in Calm   1.2 mph 98% 0 in 60.00 W/m2 unknown
10:24 30.2 °F 28.4 °F 30.5 in WSW 2.5 mph 3.7 mph 98% 0 in 83.00 W/m2 unknown
10:29 30.2 °F 28.4 °F 30.5 in WSW 2.5 mph 3.7 mph 98% 0 in 83.00 W/m2 unknown
10:34 30.2 °F 28.4 °F 30.5 in WSW 3.1 mph 3.7 mph 98% 0 in 98.00 W/m2 unknown
10:39 30.2 °F 28.4 °F 30.5 in WSW 3.1 mph 3.7 mph 98% 0 in 109.00 W/m2 unknown
10:44 30.2 °F 30.2 °F 30.5 in WSW 2.5 mph 3.7 mph 100% 0 in 109.00 W/m2 unknown
10:49 30.2 °F 30.2 °F 30.5 in WSW 2.5 mph 3.7 mph 100% 0 in 118.00 W/m2 unknown
10:54 30.2 °F 28.4 °F 30.5 in WSW 1.2 mph 3.1 mph 98% 0 in 123.00 W/m2 unknown
10:59 30.2 °F 28.4 °F 30.5 in WSW 1.9 mph 2.5 mph 98% 0 in 81.00 W/m2 unknown
11:04 30.2 °F 30.2 °F 30.5 in WSW 2.5 mph 3.7 mph 98% 0 in 90.00 W/m2 unknown
11:09 30.2 °F 30.2 °F 30.5 in WSW 1.9 mph 3.7 mph 98% 0 in 93.00 W/m2 unknown
11:14 30.2 °F 30.2 °F 30.5 in WSW 1.9 mph 3.7 mph 98% 0 in 97.00 W/m2 unknown
11:19 30.2 °F 30.2 °F 30.5 in WSW 1.9 mph 3.7 mph 98% 0 in 102.00 W/m2 unknown
11:24 30.2 °F 30.2 °F 30.5 in Calm   3.1 mph 98% 0 in 102.00 W/m2 unknown
11:29 30.2 °F 30.2 °F 30.5 in Calm     98% 0 in 100.00 W/m2 unknown
11:34 30.2 °F 30.2 °F 30.5 in WSW 1.2 mph 2.5 mph 98% 0.01 in 102.00 W/m2 unknown
11:39 30.2 °F 30.2 °F 30.5 in WSW 1.2 mph 1.9 mph 98% 0.01 in 107.00 W/m2 unknown
11:44 30.2 °F 30.2 °F 30.5 in WSW 1.9 mph 3.7 mph 99% 0.01 in 118.00 W/m2 unknown
11:49 32 °F 30.2 °F 30.5 in WSW 2.5 mph 3.7 mph 99% 0.01 in 118.00 W/m2 unknown
11:54 32 °F 30.2 °F 30.5 in WSW 3.7 mph 3.7 mph 98% 0.01 in 121.00 W/m2 unknown
11:59 32 °F 30.2 °F 30.5 in WSW 1.9 mph 3.7 mph 98% 0.01 in 127.00 W/m2 unknown
12:04 32 °F 32 °F 30.5 in WSW 3.1 mph 3.7 mph 99% 0.01 in 153.00 W/m2 unknown
12:09 32 °F 32 °F 30.5 in WSW 3.1 mph 3.7 mph 99% 0.01 in 139.00 W/m2 unknown
12:14 32 °F 32 °F 30.5 in WSW 3.1 mph 3.7 mph 99% 0.01 in 128.00 W/m2 unknown
12:19 32 °F 32 °F 30.5 in WSW 3.1 mph 3.7 mph 99% 0.01 in 137.00 W/m2 unknown
12:24 32 °F 32 °F 30.5 in West 2.5 mph 3.7 mph 99% 0.01 in 135.00 W/m2 unknown
12:29 32 °F 32 °F 30.5 in NW 2.5 mph 3.7 mph 99% 0.01 in 135.00 W/m2 unknown
12:34 32 °F 32 °F 30.5 in NW 2.5 mph 3.7 mph 99% 0.01 in 128.00 W/m2 unknown
12:39 32 °F 32 °F 30.5 in NNW 2.5 mph 3.7 mph 99% 0 in 125.00 W/m2 unknown
12:44 32 °F 32 °F 30.5 in NNW 1.9 mph 3.7 mph 99% 0 in 123.00 W/m2 unknown
12:49 32 °F 32 °F 30.5 in NNW 1.2 mph 3.7 mph 99% 0 in 132.00 W/m2 unknown
12:54 32 °F 32 °F 30.5 in NNW 1.2 mph 3.1 mph 99% 0 in 132.00 W/m2 unknown
12:59 32 °F 32 °F 30.5 in NNE 1.2 mph 2.5 mph 99% 0 in 125.00 W/m2 unknown
13:04 33.8 °F 33.8 °F 30.5 in NNE 2.5 mph 3.7 mph 100% 0 in 123.00 W/m2 unknown
13:09 33.8 °F 32 °F 30.5 in NE 2.5 mph 3.7 mph 99% 0 in 130.00 W/m2 unknown
13:14 33.8 °F 32 °F 30.5 in NE 1.2 mph 3.1 mph 99% 0 in 130.00 W/m2 unknown
13:19 33.8 °F 33.8 °F 30.5 in NNE 1.9 mph 3.1 mph 99% 0 in 118.00 W/m2 unknown
13:24 33.8 °F 33.8 °F 30.5 in North 2.5 mph 3.7 mph 99% 0 in 114.00 W/m2 unknown
13:29 33.8 °F 33.8 °F 30.5 in North 1.9 mph 3.7 mph 99% 0 in 123.00 W/m2 unknown
13:34 33.8 °F 33.8 °F 30.5 in WNW 1.9 mph 3.1 mph 99% 0 in 123.00 W/m2 unknown
13:39 33.8 °F 33.8 °F 30.5 in NW 1.2 mph 2.5 mph 99% 0 in 111.00 W/m2 unknown
13:44 33.8 °F 33.8 °F 30.5 in NE 1.9 mph 5 mph 99% 0 in 107.00 W/m2 unknown
13:49 33.8 °F 33.8 °F 30.5 in ENE 2.5 mph 5 mph 99% 0 in 102.00 W/m2 unknown
13:54 33.8 °F 33.8 °F 30.5 in NE 2.5 mph 5 mph 99% 0 in 100.00 W/m2 unknown
13:59 33.8 °F 33.8 °F 30.5 in NNE 3.1 mph 3.7 mph 99% 0 in 102.00 W/m2 unknown
14:04 33.8 °F 33.8 °F 30.5 in North 3.1 mph 3.7 mph 99% 0 in 104.00 W/m2 unknown
14:09 33.8 °F 33.8 °F 30.5 in NE 2.5 mph 3.7 mph 99% 0 in 100.00 W/m2 unknown
14:14 33.8 °F 33.8 °F 30.5 in ENE 3.7 mph 5 mph 99% 0 in 98.00 W/m2 unknown
14:19 33.8 °F 33.8 °F 30.5 in NE 3.1 mph 5 mph 99% 0 in 95.00 W/m2 unknown
14:24 33.8 °F 33.8 °F 30.5 in ENE 5.6 mph 6.8 mph 99% 0 in 88.00 W/m2 unknown
14:29 33.8 °F 33.8 °F 30.5 in NE 4.3 mph 6.8 mph 99% 0 in 90.00 W/m2 unknown
14:34 33.8 °F 33.8 °F 30.5 in NE 5 mph 6.2 mph 99% 0 in 88.00 W/m2 unknown
14:39 33.8 °F 33.8 °F 30.5 in ENE 5 mph 6.8 mph 99% 0 in 86.00 W/m2 unknown
14:44 33.8 °F 33.8 °F 30.5 in NE 5 mph 6.8 mph 99% 0 in 83.00 W/m2 unknown
14:49 33.8 °F 33.8 °F 30.5 in NE 3.7 mph 6.8 mph 99% 0 in 84.00 W/m2 unknown
14:54 33.8 °F 33.8 °F 30.5 in ENE 4.3 mph 6.8 mph 99% 0 in 98.00 W/m2 unknown
14:59 33.8 °F 33.8 °F 30.5 in NNE 3.1 mph 6.8 mph 99% 0 in 95.00 W/m2 unknown
15:04 33.8 °F 33.8 °F 30.5 in NNE 3.7 mph 3.7 mph 99% 0 in 90.00 W/m2 unknown
15:09 35.6 °F 33.8 °F 30.5 in NNE 4.3 mph 6.2 mph 99% 0 in 81.00 W/m2 unknown
15:14 35.6 °F 33.8 °F 30.5 in NNE 5 mph 6.2 mph 99% 0 in 77.00 W/m2 unknown
15:19 35.6 °F 33.8 °F 30.5 in ENE 5.6 mph 6.8 mph 99% 0 in 74.00 W/m2 unknown
15:24 35.6 °F 33.8 °F 30.5 in ENE 5 mph 6.8 mph 99% 0 in 60.00 W/m2 unknown
15:29 35.6 °F 35.6 °F 30.5 in ENE 6.8 mph 6.8 mph 99% 0 in 56.00 W/m2 unknown
15:34 35.6 °F 33.8 °F 30.5 in ENE 5.6 mph 8.1 mph 99% 0 in 51.00 W/m2 unknown
15:39 35.6 °F 35.6 °F 30.5 in ENE 4.3 mph 8.1 mph 99% 0 in 49.00 W/m2 unknown
15:44 35.6 °F 35.6 °F 30.5 in ENE 5 mph 6.8 mph 99% 0 in 49.00 W/m2 unknown
15:49 35.6 °F 35.6 °F 30.5 in East 6.2 mph 8.1 mph 99% 0 in 37.00 W/m2 unknown
15:54 35.6 °F 35.6 °F 30.5 in ENE 5.6 mph 8.1 mph 99% 0 in 35.00 W/m2 unknown
15:59 35.6 °F 35.6 °F 30.5 in NE 2.5 mph 8.1 mph 99% 0 in 30.00 W/m2 unknown
16:04 35.6 °F 35.6 °F 30.5 in ENE 5 mph 6.8 mph 99% 0 in 28.00 W/m2 unknown
16:09 35.6 °F 35.6 °F 30.5 in NE 5 mph 6.8 mph 99% 0 in 26.00 W/m2 unknown
16:14 35.6 °F 35.6 °F 30.5 in ENE 3.1 mph 5 mph 100% 0 in 26.00 W/m2 unknown
16:19 35.6 °F 35.6 °F 30.5 in East 3.1 mph 5 mph 99% 0 in 23.00 W/m2 unknown
16:24 35.6 °F 35.6 °F 30.5 in East 3.7 mph 5 mph 99% 0 in 21.00 W/m2 unknown
16:29 35.6 °F 35.6 °F 30.5 in ESE 3.1 mph 5 mph 100% 0 in 19.00 W/m2 unknown
16:34 35.6 °F 35.6 °F 30.5 in East 3.1 mph 5 mph 100% 0 in 16.00 W/m2 unknown
16:39 35.6 °F 35.6 °F 30.5 in East 2.5 mph 5 mph 99% 0 in 12.00 W/m2 unknown
16:44 35.6 °F 35.6 °F 30.5 in East 1.9 mph 3.7 mph 99% 0 in 11.00 W/m2 unknown
16:49 35.6 °F 35.6 °F 30.5 in East 1.9 mph 3.7 mph 99% 0 in 9.00 W/m2 unknown
16:54 35.6 °F 35.6 °F 30.5 in East 1.2 mph 3.1 mph 99% 0 in 7.00 W/m2 unknown
16:59 35.6 °F 35.6 °F 30.5 in East 1.9 mph 2.5 mph 100% 0 in 5.00 W/m2 unknown
17:04 35.6 °F 35.6 °F 30.5 in East 1.9 mph 3.1 mph 100% 0 in 0.00 W/m2 unknown
17:09 35.6 °F 35.6 °F 30.5 in East 1.9 mph 3.7 mph 100% 0 in 0.00 W/m2 unknown
17:14 35.6 °F 35.6 °F 30.5 in East 1.2 mph 3.1 mph 100% 0 in 0.00 W/m2 unknown
17:19 35.6 °F 35.6 °F 30.5 in Calm   1.9 mph 100% 0 in 0.00 W/m2 unknown
17:24 35.6 °F 35.6 °F 30.5 in ESE 1.2 mph 2.5 mph 100% 0 in 0.00 W/m2 unknown
17:29 35.6 °F 35.6 °F 30.5 in ESE 1.2 mph 2.5 mph 100% 0 in 0.00 W/m2 unknown
17:34 35.6 °F 35.6 °F 30.5 in East 2.5 mph 3.1 mph 99% 0 in 0.00 W/m2 unknown
17:39 35.6 °F 35.6 °F 30.5 in ESE 3.1 mph 6.2 mph 99% 0 in 0.00 W/m2 unknown
17:44 35.6 °F 35.6 °F 30.5 in East 2.5 mph 6.2 mph 99% 0 in 0.00 W/m2 unknown
17:49 35.6 °F 35.6 °F 30.5 in East 3.1 mph 5 mph 99% 0 in 0.00 W/m2 unknown
17:54 35.6 °F 35.6 °F 30.5 in East 3.7 mph 6.8 mph 99% 0 in 0.00 W/m2 unknown
17:59 35.6 °F 35.6 °F 30.5 in East 3.1 mph 6.8 mph 99% 0 in 0.00 W/m2 unknown
18:04 35.6 °F 35.6 °F 30.5 in ENE 2.5 mph 5 mph 100% 0 in 0.00 W/m2 unknown
18:09 35.6 °F 35.6 °F 30.5 in ENE 1.9 mph 3.7 mph 100% 0 in 0.00 W/m2 unknown
18:14 35.6 °F 35.6 °F 30.5 in ENE 1.2 mph 3.1 mph 100% 0 in 0.00 W/m2 unknown
18:19 35.6 °F 35.6 °F 30.5 in ENE 2.5 mph 3.7 mph 100% 0 in 0.00 W/m2 unknown
18:24 35.6 °F 35.6 °F 30.5 in ENE 1.9 mph 3.7 mph 100% 0 in 0.00 W/m2 unknown
18:29 35.6 °F 35.6 °F 30.5 in ENE 1.2 mph 3.1 mph 100% 0 in 0.00 W/m2 unknown
18:34 35.6 °F 35.6 °F 30.5 in ENE 1.9 mph 2.5 mph 100% 0 in 0.00 W/m2 unknown
18:39 35.6 °F 35.6 °F 30.5 in NE 2.5 mph 3.7 mph 100% 0 in 0.00 W/m2 unknown
18:44 35.6 °F 35.6 °F 30.5 in NE 2.5 mph 3.7 mph 100% 0 in 0.00 W/m2 unknown
18:49 37.4 °F 37.4 °F 30.5 in NE 1.2 mph 3.1 mph 100% 0 in 0.00 W/m2 unknown
18:54 37.4 °F 37.4 °F 30.5 in NE 1.9 mph 3.7 mph 100% 0 in 0.00 W/m2 unknown
18:59 37.4 °F 37.4 °F 30.5 in NNE 3.1 mph 3.7 mph 100% 0 in 0.00 W/m2 unknown
19:04 37.4 °F 37.4 °F 30.5 in NNE 3.1 mph 3.7 mph 100% 0 in 0.00 W/m2 unknown
19:09 37.4 °F 37.4 °F 30.5 in North 3.1 mph 3.7 mph 100% 0 in 0.00 W/m2 unknown
19:14 35.6 °F 35.6 °F 30.5 in North 3.1 mph 3.7 mph 100% 0 in 0.00 W/m2 unknown
19:19 35.6 °F 35.6 °F 30.5 in NNW 2.5 mph 3.7 mph 100% 0 in 0.00 W/m2 unknown
19:24 35.6 °F 35.6 °F 30.6 in NNW 1.9 mph 3.7 mph 100% 0 in 0.00 W/m2 unknown
19:29 35.6 °F 35.6 °F 30.6 in Calm   3.1 mph 100% 0 in 0.00 W/m2 unknown
19:34 35.6 °F 35.6 °F 30.6 in North 1.2 mph 3.1 mph 100% 0 in 0.00 W/m2 unknown
19:39 37.4 °F 37.4 °F 30.6 in North 3.1 mph 3.7 mph 100% 0 in 0.00 W/m2 unknown
19:44 37.4 °F 37.4 °F 30.6 in North 3.1 mph 3.7 mph 100% 0 in 0.00 W/m2 unknown
19:49 35.6 °F 35.6 °F 30.6 in North 2.5 mph 3.7 mph 100% 0 in 0.00 W/m2 unknown
19:54 35.6 °F 35.6 °F 30.6 in NNW 4.3 mph 5 mph 100% 0 in 0.00 W/m2 unknown
19:59 35.6 °F 35.6 °F 30.6 in NNW 4.3 mph 5 mph 100% 0 in 0.00 W/m2 unknown
20:04 35.6 °F 35.6 °F 30.6 in North 3.1 mph 5 mph 100% 0 in 0.00 W/m2 unknown
20:09 35.6 °F 35.6 °F 30.6 in NNW 2.5 mph 3.7 mph 100% 0 in 0.00 W/m2 unknown
20:14 35.6 °F 35.6 °F 30.6 in NNW 3.1 mph 3.7 mph 100% 0 in 0.00 W/m2 unknown
20:19 35.6 °F 35.6 °F 30.6 in NNW 5.6 mph 6.2 mph 100% 0 in 0.00 W/m2 unknown
20:24 35.6 °F 35.6 °F 30.6 in NNW 5 mph 6.2 mph 100% 0 in 0.00 W/m2 unknown
20:29 35.6 °F 35.6 °F 30.6 in NNW 5 mph 6.2 mph 100% 0 in 0.00 W/m2 unknown
20:34 35.6 °F 35.6 °F 30.6 in NNW 3.1 mph 6.2 mph 100% 0 in 0.00 W/m2 unknown
20:39 35.6 °F 35.6 °F 30.6 in NNW 4.3 mph 6.2 mph 100% 0 in 0.00 W/m2 unknown
20:44 35.6 °F 35.6 °F 30.6 in NNW 5 mph 6.2 mph 100% 0 in 0.00 W/m2 unknown
20:49 35.6 °F 35.6 °F 30.6 in NNW 3.7 mph 6.2 mph 100% 0 in 0.00 W/m2 unknown
20:54 35.6 °F 35.6 °F 30.6 in NNW 3.7 mph 6.2 mph 100% 0 in 0.00 W/m2 unknown
20:59 35.6 °F 35.6 °F 30.6 in NW 2.5 mph 5 mph 100% 0 in 0.00 W/m2 unknown
21:04 35.6 °F 35.6 °F 30.6 in NNW 2.5 mph 3.7 mph 100% 0 in 0.00 W/m2 unknown
21:09 35.6 °F 35.6 °F 30.6 in NW 2.5 mph 3.7 mph 100% 0 in 0.00 W/m2 unknown
21:14 35.6 °F 35.6 °F 30.6 in NNW 3.1 mph 3.7 mph 100% 0 in 0.00 W/m2 unknown
21:19 35.6 °F 35.6 °F 30.6 in NNW 3.1 mph 6.2 mph 100% 0 in 0.00 W/m2 unknown
21:24 35.6 °F 35.6 °F 30.6 in NNW 3.7 mph 6.2 mph 100% 0 in 0.00 W/m2 unknown
21:29 35.6 °F 35.6 °F 30.6 in NNW 3.7 mph 5 mph 100% 0 in 0.00 W/m2 unknown
21:34 35.6 °F 35.6 °F 30.6 in NNW 4.3 mph 6.2 mph 100% 0 in 0.00 W/m2 unknown
21:39 35.6 °F 35.6 °F 30.6 in North 3.1 mph 6.2 mph 100% 0 in 0.00 W/m2 unknown
21:44 35.6 °F 35.6 °F 30.6 in NNW 3.7 mph 5 mph 100% 0 in 0.00 W/m2 unknown
21:49 35.6 °F 35.6 °F 30.6 in NNW 3.7 mph 5 mph 100% 0 in 0.00 W/m2 unknown
21:54 35.6 °F 35.6 °F 30.6 in NNW 3.1 mph 5 mph 100% 0 in 0.00 W/m2 unknown
21:59 35.6 °F 35.6 °F 30.6 in NW 2.5 mph 3.7 mph 100% 0 in 0.00 W/m2 unknown
22:04 35.6 °F 35.6 °F 30.6 in NNW 3.1 mph 3.7 mph 100% 0 in 0.00 W/m2 unknown
22:09 35.6 °F 35.6 °F 30.6 in NW 2.5 mph 3.7 mph 100% 0 in 0.00 W/m2 unknown
22:14 35.6 °F 35.6 °F 30.6 in NW 2.5 mph 3.7 mph 100% 0 in 0.00 W/m2 unknown
22:19 35.6 °F 35.6 °F 30.6 in NNW 3.1 mph 3.7 mph 100% 0 in 0.00 W/m2 unknown
22:24 35.6 °F 35.6 °F 30.6 in NNW 2.5 mph 3.7 mph 100% 0 in 0.00 W/m2 unknown
22:29 35.6 °F 35.6 °F 30.6 in NNW 2.5 mph 3.7 mph 100% 0 in 0.00 W/m2 unknown
22:34 35.6 °F 35.6 °F 30.6 in NW 1.9 mph 3.7 mph 100% 0 in 0.00 W/m2 unknown
22:39 35.6 °F 35.6 °F 30.6 in NNW 1.9 mph 3.7 mph 100% 0 in 0.00 W/m2 unknown
22:44 35.6 °F 35.6 °F 30.6 in NW 1.9 mph 3.7 mph 100% 0 in 0.00 W/m2 unknown
22:49 35.6 °F 35.6 °F 30.6 in West 1.9 mph 3.7 mph 100% 0 in 0.00 W/m2 unknown
22:54 35.6 °F 35.6 °F 30.6 in WSW 2.5 mph 3.7 mph 100% 0 in 0.00 W/m2 unknown
22:59 35.6 °F 35.6 °F 30.6 in West 1.9 mph 3.7 mph 100% 0 in 0.00 W/m2 unknown
23:04 35.6 °F 35.6 °F 30.6 in West 1.9 mph 3.7 mph 100% 0 in 0.00 W/m2 unknown
23:09 35.6 °F 35.6 °F 30.6 in WNW 3.1 mph 3.7 mph 100% 0 in 0.00 W/m2 unknown
23:14 35.6 °F 35.6 °F 30.6 in WNW 2.5 mph 3.7 mph 100% 0 in 0.00 W/m2 unknown
23:19 35.6 °F 35.6 °F 30.6 in WNW 2.5 mph 3.7 mph 100% 0 in 0.00 W/m2 unknown
23:24 35.6 °F 35.6 °F 30.6 in WNW 3.7 mph 5 mph 100% 0 in 0.00 W/m2 unknown
23:29 35.6 °F 35.6 °F 30.6 in West 4.3 mph 5 mph 100% 0 in 0.00 W/m2 unknown
23:34 35.6 °F 35.6 °F 30.6 in WSW 2.5 mph 3.7 mph 100% 0 in 0.00 W/m2 unknown
23:39 35.6 °F 35.6 °F 30.6 in WSW 3.1 mph 3.7 mph 100% 0 in 0.00 W/m2 unknown
23:44 33.8 °F 33.8 °F 30.6 in WSW 3.1 mph 3.7 mph 100% 0 in 0.00 W/m2 unknown
23:49 33.8 °F 33.8 °F 30.6 in SW 3.7 mph 3.7 mph 100% 0 in 0.00 W/m2 unknown
23:54 33.8 °F 33.8 °F 30.6 in WSW 3.1 mph 3.7 mph 100% 0 in 0.00 W/m2 unknown
23:59 33.8 °F 33.8 °F 30.6 in WSW 3.1 mph 3.7 mph 100% 0 in 0.00 W/m2 unknown
Stazione Meteorologica MeteoMincio Rivalta s/M (MN)
Con i complimenti di Weather Underground - 4 mb



METEO PILLOLE
Lo strato di neve al suolo più spesso
Tamarack, California
11,455 metri nel marzo 1911.
Share

Non seguire questo link o sarai bannato dal sito!